User: anonymous   Login
Location: Caltech
(34.1382°N, 118.1253°W)
Time: 09:50:54
(UTC-07:00)
Language:

Meteor 2-4 Rocket - Orbit

View from above orbital plane
View from above orbital plane
View from above satellite
View from above satellite

Ground track
Ground track

The orbit data is extracted from the following two-line orbital elements,

1 11289U 79021B   16239.55592086  .00000243  00000-0  12367-3 0  9992
2 11289  81.2444  91.5914 0075454 350.6303   9.3455 14.11543351929262
Epoch (UTC): 26 August 2016 13:20:31
Eccentricity: 0.0075454
inclination: 81.2444°
perigee height: 799 km
apogee height: 908 km
right ascension of ascending node: 91.5914°
argument of perigee: 350.6303°
revolutions per day: 14.11543351
mean anomaly at epoch: 9.3455°
orbit number at epoch: 92926

The dashed part of the orbit path shows where the satellite is in the earth's shadow,  

DLR